Location: Antioch
(38.0049°N, 121.8058°W)
Time: 02:57:10
(UTC+00:00)

Cosmos 2208 Rocket - Pass Details

Date: 23 May 2026
Orbit: 751 x 800 km, 74.0° (Epoch: 9 June)

Event Time Altitude Azimuth Distance (km) Brightness Sun altitude
Exits shadow 07:27:47 19° 66° (ENE) 1,792 6.0 -30.8°
Drops below altitude 10° 07:29:49 10° 47° (NE) 2,311 6.8 -30.8°
Sets 07:32:35 0° 33° (NNE) 3,233 7.9 -30.9°
